Evans Head Observation History
Time Wind Speed Temp Pressure Rel. Hum Rain
24/09:00am N 7-13 kts 30.0°c 1010.8 hPa 69% 0.0mm
24/08:30am N 6-9 kts 28.2°c 1010.9 hPa 74% 0.0mm
24/08:00am N 5-7 kts 27.3°c 1011.2 hPa 80% 0.0mm
24/07:30am N 5-7 kts 25.8°c 1011.2 hPa 85% 0.0mm
24/07:00am N 5-7 kts 24.8°c 1010.8 hPa 88% 0.0mm
24/06:30am N 5 kts 23.8°c 1010.5 hPa 90% 0.0mm
24/06:00am N 5-6 kts 23.7°c 1009.9 hPa 89% 0.0mm
24/05:30am N 5-7 kts 23.8°c 1009.2 hPa 89% 0.0mm
24/05:00am N 7-10 kts 23.9°c 1008.5 hPa 90% 0.0mm
24/04:30am N 8-10 kts 23.8°c 1008.1 hPa 90% 0.0mm
24/04:00am N 9-13 kts 24.0°c 1007.8 hPa 89% 0.0mm
24/03:30am N 8-13 kts 24.4°c 1008.1 hPa 88% 0.0mm
24/03:00am N 8-12 kts 24.6°c 1008.7 hPa 87% 0.0mm
24/02:30am N 7-10 kts 24.8°c 1009.2 hPa 86% 0.0mm
24/02:00am N 7-11 kts 25.0°c 1009.6 hPa 85% 0.0mm
24/01:30am N 9-15 kts 25.2°c 1009.6 hPa 85% 0.0mm
24/01:00am N 11-18 kts 25.4°c 1009.5 hPa 84% 0.0mm
24/12:30am N 11-18 kts 25.6°c 1009.8 hPa 84% 0.0mm
24/12:00am N 14-20 kts 25.7°c 1009.4 hPa 84% 0.0mm
Time Wind Speed Temp Pressure Rel. Hum Rain
23/11:30pm N 13-19 kts 25.6°c 1009.1 hPa 84% 0.0mm
23/11:00pm N 15-21 kts 25.7°c 1008.9 hPa 83% 0.0mm
23/10:30pm N 11-18 kts 25.7°c 1009.7 hPa 83% 0.0mm
23/10:00pm N 11-15 kts 25.7°c 1009.7 hPa 83% 0.0mm
23/09:30pm N 11-19 kts 25.3°c 1009.6 hPa 85% 0.0mm
23/09:00pm N 13-19 kts 25.2°c 1009.1 hPa 84% 0.0mm
23/08:30pm N 15-23 kts 25.4°c 1008.7 hPa 83% 0.0mm
23/08:00pm N 12-19 kts 25.9°c 1008.5 hPa 82% 0.0mm
23/07:30pm N 14-23 kts 26.3°c 1008.3 hPa 80% 0.0mm
23/07:00pm N 13-22 kts 26.7°c 1008.0 hPa 78% 0.0mm
23/06:30pm N 15-23 kts 27.1°c 1007.5 hPa 75% 0.0mm
23/06:00pm N 16-23 kts 28.0°c 1007.2 hPa 73% 0.0mm
23/05:30pm N 17-27 kts 28.0°c 1006.7 hPa 72% 0.0mm
23/05:18pm N 17-27 kts 28.4°c 1006.7 hPa 71% 0.0mm
23/05:00pm N 15-23 kts 28.7°c 1006.8 hPa 70% 0.0mm
23/04:36pm N 15-27 kts 30.7°c 1006.8 hPa 62% 0.0mm
23/04:30pm N 14-23 kts 31.8°c 1006.9 hPa 65% 0.0mm
23/04:05pm NNE 16-26 kts 30.2°c 1007.1 hPa 67% 0.0mm
23/04:00pm NNE 17-26 kts 29.6°c 1007.1 hPa 67% 0.0mm
23/03:31pm NNE 15-25 kts 32.6°c 1007.5 hPa 58% 0.0mm
23/03:30pm NNE 14-25 kts 32.9°c 1007.6 hPa 60% 0.0mm
23/03:10pm NNE 15-25 kts 31.8°c 1007.8 hPa 60% 0.0mm
23/03:00pm N 12-21 kts 34.3°c 1008.0 hPa 56% 0.0mm
23/02:39pm NNE 15-26 kts 32.5°c 1008.2 hPa 58% 0.0mm
23/02:30pm NNE 13-21 kts 33.7°c 1008.5 hPa 59% 0.0mm
23/02:00pm NNE 13-21 kts 32.9°c 1008.8 hPa 58% 0.0mm
23/01:30pm N 12-19 kts 35.0°c 1009.3 hPa 55% 0.0mm
23/01:00pm N 12-20 kts 34.1°c 1009.8 hPa 56% 0.0mm
23/12:30pm N 11-17 kts 34.3°c 1010.2 hPa 56% 0.0mm
23/12:00pm NNE 11-19 kts 32.9°c 1010.7 hPa 61% 0.0mm
23/11:30am N 12-17 kts 34.9°c 1010.9 hPa 50% 0.0mm
23/11:00am N 8-18 kts 34.3°c 1011.3 hPa 56% 0.0mm
23/10:30am N 10-15 kts 32.7°c 1011.6 hPa 61% 0.0mm
23/10:00am N 6-9 kts 29.8°c 1011.8 hPa 72% 0.0mm
23/09:30am N 7-10 kts 29.0°c 1011.9 hPa 77% 0.0mm
23/09:00am NNE 7-13 kts 28.3°c 1011.9 hPa 74% 0.0mm
23/08:30am NNE 7-10 kts 28.4°c 1011.9 hPa 80% 0.0mm
23/08:00am N 5-7 kts 25.6°c 1011.8 hPa 92% 0.0mm
23/07:30am N 6-7 kts 24.9°c 1011.4 hPa 93% 0.0mm
23/07:00am N 6-8 kts 24.4°c 1011.1 hPa 95% 0.0mm
23/06:30am N 6-9 kts 24.1°c 1010.7 hPa 96% 0.0mm
23/06:00am N 6-10 kts 24.0°c 1010.5 hPa 96% 0.0mm
23/05:30am N 7-11 kts 23.7°c 1010.0 hPa 95% 0.0mm
23/05:00am N 10-15 kts 23.5°c 1009.6 hPa 95% 0.0mm
23/04:30am N 8-11 kts 23.7°c 1009.5 hPa 94% 0.0mm
23/04:00am N 7-10 kts 23.9°c 1009.6 hPa 94% 0.0mm
23/03:30am N 8-12 kts 23.9°c 1009.6 hPa 94% 0.0mm
23/03:00am N 8-12 kts 23.7°c 1009.7 hPa 93% 0.0mm
23/02:30am N 9-12 kts 23.9°c 1009.8 hPa 92% 0.0mm
23/02:00am N 6-8 kts 24.2°c 1010.3 hPa 91% 0.0mm
23/01:30am N 8-12 kts 24.5°c 1010.5 hPa 91% 0.0mm
23/01:00am N 11-14 kts 24.6°c 1010.5 hPa 91% 0.0mm
23/12:30am N 8-11 kts 24.7°c 1010.6 hPa 89% 0.0mm
23/12:00am N 9-13 kts 25.1°c 1010.8 hPa 87% 0.0mm
Time Wind Speed Temp Pressure Rel. Hum Rain
22/11:30pm N 8-11 kts 25.7°c 1010.9 hPa 84% 0.0mm
22/11:00pm N 10-16 kts 26.2°c 1010.5 hPa 82% 0.0mm
22/10:30pm N 11-19 kts 26.3°c 1010.6 hPa 83% 0.0mm
22/10:00pm N 13-22 kts 26.0°c 1009.8 hPa 86% 0.0mm
22/09:30pm N 11-15 kts 25.6°c 1009.3 hPa 87% 0.0mm
22/09:00pm N 13-22 kts 25.7°c 1009.0 hPa 87% 0.0mm
22/08:30pm N 14-22 kts 26.1°c 1008.5 hPa 84% 0.0mm
22/08:00pm N 12-18 kts 26.1°c 1008.7 hPa 85% 0.0mm
22/07:30pm N 14-21 kts 26.1°c 1008.0 hPa 84% 0.0mm
22/07:00pm NNE 14-21 kts 26.4°c 1007.5 hPa 79% 0.0mm
22/06:30pm NNE 12-18 kts 27.8°c 1007.0 hPa 77% 0.0mm
22/06:00pm NNE 12-20 kts 28.1°c 1007.2 hPa 73% 0.0mm
22/05:30pm NNE 10-16 kts 30.7°c 1007.1 hPa 67% 0.0mm
22/05:00pm N 9-14 kts 31.1°c 1007.3 hPa 66% 0.0mm
22/04:30pm NNE 11-16 kts 30.8°c 1007.5 hPa 62% 0.0mm
22/04:00pm NNE 8-13 kts 30.5°c 1008.2 hPa 62% 0.0mm
22/03:30pm NNE 7-12 kts 31.3°c 1008.7 hPa 60% 0.0mm
22/03:00pm E 7-10 kts 28.0°c 1009.2 hPa 70% 0.0mm
22/02:30pm E 7-10 kts 28.5°c 1009.7 hPa 73% 0.0mm
22/02:00pm E 7-10 kts 26.9°c 1009.9 hPa 75% 0.0mm
22/01:30pm ESE 9-11 kts 27.7°c 1010.4 hPa 73% 0.0mm
22/01:00pm SE 7-9 kts 30.2°c 1010.7 hPa 65% 0.0mm
22/12:30pm SSE 8-10 kts 29.4°c 1011.0 hPa 70% 0.0mm
22/12:00pm SE 8-11 kts 28.3°c 1011.4 hPa 73% 0.0mm
22/11:30am SE 6-8 kts 28.3°c 1011.5 hPa 75% 0.0mm
22/11:00am SSE 6-8 kts 26.9°c 1011.8 hPa 76% 0.0mm
22/10:30am SSE 9-12 kts 27.1°c 1011.7 hPa 76% 0.0mm
22/10:00am SSE 5-8 kts 25.9°c 1011.9 hPa 84% 0.0mm
22/09:30am SSE 4-9 kts 24.9°c 1011.9 hPa 89% 0.0mm
22/09:00am S 5-7 kts 24.3°c 1011.6 hPa 91% 0.0mm
22/08:30am S 5-8 kts 24.5°c 1011.5 hPa 94% 0.0mm
22/08:00am S 5-8 kts 23.8°c 1011.2 hPa 97% 0.0mm
22/07:30am SSW 6-8 kts 23.6°c 1010.5 hPa 97% 0.0mm
22/07:00am WSW 5-8 kts 22.8°c 1010.1 hPa 97% 0.0mm
22/06:30am SSW 6-9 kts 22.6°c 1009.7 hPa 96% 0.0mm
22/06:00am SSW 7-9 kts 22.4°c 1009.4 hPa 94% 0.0mm
22/05:30am SW 6-8 kts 22.0°c 1008.9 hPa 93% 0.0mm
22/05:00am SW 7-9 kts 21.7°c 1008.6 hPa 91% 0.0mm
22/04:30am SW 7-9 kts 21.8°c 1008.2 hPa 86% 0.0mm
22/04:00am S 3-5 kts 22.5°c 1008.0 hPa 84% 0.0mm
22/03:30am SE 2-4 kts 22.2°c 1007.6 hPa 85% 0.0mm
22/03:00am NNW 5 kts 22.7°c 1007.5 hPa 81% 0.0mm
22/02:30am NNW 3-5 kts 22.8°c 1007.7 hPa 82% 0.0mm
22/02:00am N 5-9 kts 23.3°c 1007.7 hPa 81% 0.0mm
22/01:30am N 4-6 kts 22.9°c 1007.7 hPa 78% 0.0mm
22/01:00am NNE 5-7 kts 23.0°c 1007.9 hPa 78% 0.0mm
22/12:30am NNE 6-9 kts 23.1°c 1007.9 hPa 77% 0.0mm
22/12:00am N 7-12 kts 23.8°c 1008.0 hPa 73% 0.0mm